    Orbital elements:
    2017 EY2                                                 Earth MOID = 0.0725 AU
    Epoch 2017 Feb. 16.0 TT = JDT 2457800.5                 MPC
    M  13.64018              (2000.0)            P               Q
    n   0.34534882     Peri.  343.72692     +0.18178520     -0.97931440
    a   2.0120128      Node    95.73439     +0.91185826     +0.13405474
    e   0.6420709      Incl.    5.12417     +0.36806066     +0.15156725
    P   2.85           H   21.7           G   0.15           U   8
    Residuals in seconds of arc
    170305 703  0.3+  0.1+    170306 G96  0.1+  0.2+    170307 160  0.0   0.4+
    170305 703  0.6-  0.2-    170306 G96  0.2-  0.3+    170308 204  0.4-  0.4-
    170305 703  0.5+  0.5+    170306 G96  0.1-  0.4+    170308 204  0.9-  0.8+
    170305 G96  0.1+  0.2+    170306 G96  0.0   0.1-    170308 204  0.1-  0.1-
    170305 703  0.1-  0.2+    170306 G96  0.1-  0.1+    170308 H36  0.5+  0.5+
    170305 H01  0.0   0.0     170306 G96  0.6-  0.1-    170308 I52  0.0   0.2-
    170305 703  0.1+  0.2-    170306 G96  0.4+  0.0     170308 I52  0.4+  0.1+
    170305 703  0.3+  0.3-    170306 300  0.3+  0.1+    170308 I52  0.2-  0.4-
    170305 G96  0.1+  0.0     170306 300  0.1-  0.6-    170308 I52  0.3+  0.1-
    170305 703  0.6-  0.6+    170306 300  0.1+  0.3-    170308 H36  0.1-  0.3-
    170305 G96  0.2-  0.3+    170306 300  0.1+  0.1+    170308 H36  0.2-  0.4-
    170305 G96  0.2+  0.5+    170306 300  0.1+  0.0     170308 G96  0.2+  0.0
    170305 H01  0.1-  0.3+    170307 H01  0.1-  0.1-    170308 G96  0.1-  0.2+
    170305 H01  0.1-  0.1+    170307 H01  0.0   0.1-    170308 G96  0.5+  0.2-
    170305 H01  0.3-  0.1+    170307 H01  0.0   0.1-    170308 926  0.7+  0.3-
    170305 Z21  0.0   0.5-    170307 G96  0.2+  0.1-    170308 926  1.5+  0.1-
    170305 Z21  0.3+  0.2-    170307 G96  0.1+  0.7+    170308 Z99  0.5+  0.2-
    170305 Z21  0.1-  0.5-    170307 G96  0.2-  0.2-    170308 Z99  0.2+  0.5+
    170305 Z21  0.3+  0.3-    170307 G96  0.2-  0.1-    170308 Z99 (3.1-  0.2-)
    170305 Z21  0.6+  0.2-    170307 H01  0.0   0.1-    170309 W25  0.2-  0.7-
    170305 Z21  0.2-  1.0-    170307 160  1.0+  1.1+    170309 W25  0.4-  0.3+
    170306 G96  0.7-  0.4-    170307 160  0.6+  0.8+
    
    Ephemeris:
    2017 EY2                 a,e,i = 2.01, 0.64, 5                   q = 0.7202
    Date    TT    R. A. (2000) Decl.     Delta      r     Elong.  Phase     V
    2017 02 08    22 16 08.0 +13 22 41   0.1331  0.8750    31.0   144.5    24.5
    ...
    2017 02 23    15 16 03.8 +68 04 21   0.08036 1.0140   105.6    70.0    18.7
    ...
    2017 03 03    12 09 37.8 +46 00 00   0.1333  1.0937   137.7    37.6    19.0
    ...
    2017 03 09    11 43 03.9 +36 38 59   0.1866  1.1544   147.4    27.6    19.6
    2017 03 10    11 40 26.1 +35 31 12   0.1960  1.1645   148.4    26.6    19.7
    2017 03 11    11 38 06.2 +34 28 33   0.2057  1.1747   149.2    25.7    19.8
    ...
    2017 03 17    11 28 23.1 +29 32 13   0.2662  1.2356   151.6    22.5    20.4
    ...
    2017 03 25    11 22 02.1 +25 04 18   0.3540  1.3163   150.2    22.1    21.1
    ...
    2017 04 09    11 20 17.5 +19 31 03   0.5402  1.4643   141.7    25.1    22.3
    
    A. U. Tomatic                (C) Copyright 2017 MPC           M.P.E.C. 2017-E68
    

    Read MPEC 2017-E67 Read MPEC 2017-E69


    MPEC number:

    Enter an MPEC number in one of the following forms:

    • 1997-B01 (the full form)
    • J97B01 (the packed version of the full form)
    • B01 (the abbreviated form)